Regional Weather Roundup
Issued by NWS Boston, MA

Current Version | Previous Version | Text Only | Print | Product List | Glossary Off
Versions: 1 2 3 4 5 6 7 8 9 10 11 12 13 14 15 16 17 18 19 20 21 22 23 24 25 26 27 28 29 30 31 32 33 34 35 36 37 38 39 40 41 42 43 44 45 46 47 48 49 50

047
ASUS41 KBOX 242110
RWRBOX

REGIONAL WEATHER ROUNDUP
NATIONAL WEATHER SERVICE TAUNTON MA
500 PM EDT SAT JUN 24 2017

NOTE:  "FAIR" INDICATES FEW OR NO CLOUDS BELOW 12,000 FEET WITH NO
SIGNIFICANT WEATHER AND/OR OBSTRUCTIONS TO VISIBILITY.

MAZALL-242200-
EASTERN MASSACHUSETTS

CITY           SKY/WX    TMP DP  RH WIND       PRES   REMARKS
BOSTON         MOSUNNY   87  55  33 W21G30    29.64R
BEVERLY        MOSUNNY   85  63  47 W10G20    29.64R
LAWRENCE       SUNNY     87  57  35 W15G24    29.66R
BEDFORD        SUNNY     84  54  35 W12       29.65R
BLUE HILL        N/A     83  60  45 W10G21    29.68R
NORWOOD        SUNNY     86  61  42 W15G22    29.65R
MARSHFIELD     MOSUNNY   88  63  42 W12G20    29.64R
PLYMOUTH       SUNNY     85  60  42 W18G26    29.66R
TAUNTON        SUNNY     86  57  37 W10G20    29.66R
NEW BEDFORD    MOSUNNY   84  64  50 W14G22    29.67R
$$

MAZALL-242200-
CAPE COD AND THE ISLANDS

CITY           SKY/WX    TMP DP  RH WIND       PRES   REMARKS
FALMOUTH       SUNNY     84  66  54 W13G20    29.67R
HYANNIS        MOSUNNY   85  69  58 W10G20    29.65R
CHATHAM        SUNNY     78  72  81 SW9       29.66R
PROVINCETOWN   MOSUNNY   82  71  69 W8        29.65R
NANTUCKET      SUNNY     73  66  78 W22G30    29.68R
MARTHAS VNYRD  SUNNY     82  67  60 W8        29.68R
$$

MAZALL-242200-
CENTRAL AND WESTERN MASSACHUSETTS

CITY           SKY/WX    TMP DP  RH WIND       PRES   REMARKS
WORCESTER      MOSUNNY   80  56  43 W15       29.73R
FITCHBURG      MOSUNNY   84  59  42 W15G25    29.69R
ORANGE         MOSUNNY   82  59  45 W16G24    29.72R
SPRINGFIELD    PTSUNNY   83  54  36 W15G21    29.72R
WESTFIELD      PTSUNNY   84  54  35 W13G25    29.73R
NORTH ADAMS    SUNNY     78  55  44 W15       29.76R
PITTSFIELD     SUNNY     77  50  38 NW14G25   29.78R
$$

RIZALL-242200-
RHODE ISLAND

CITY           SKY/WX    TMP DP  RH WIND       PRES   REMARKS
PROVIDENCE     MOSUNNY   86  58  38 NW12G17   29.69R
NEWPORT        SUNNY     84  59  42 W9G17     29.70R
BLOCK ISLAND   SUNNY     77  61  57 W13G21    29.72R
WESTERLY       SUNNY     86  57  37 NW9G21    29.72R
$$

CTZALL-242200-
CONNECTICUT

CITY           SKY/WX    TMP DP  RH WIND       PRES   REMARKS
BRADLEY INTL   PTSUNNY   82  53  36 W16       29.74R
HARTFORD       PTSUNNY   83  54  36 NW9G17    29.73R
BRIDGEPORT     MOSUNNY   88  55  32 W12G20    29.75R
DANBURY        PTSUNNY   82  53  36 W10       29.79R
GROTON         SUNNY     85  54  34 NW15G26   29.71R
NEW HAVEN      MOSUNNY   84  55  37 NW9       29.74R
CHESTER        FAIR      82  55  39 NW14G20   29.75R
MERIDEN        MOSUNNY   83  54  36 NW10      29.74R
WILLIMANTIC    SUNNY     84  55  36 NW9       29.73R
OXFORD         MOSUNNY   61  54  77 NW8G18    29.81R
$$

MEZ002-015-021-024-NHZ003-005-008-011-012-014-VTZ005-008-242200-
NORTHERN NEW ENGLAND

CITY           SKY/WX    TMP DP  RH WIND       PRES   REMARKS
PORTLAND ME    PTSUNNY   84  55  36 W15       29.61R
BANGOR ME      MOSUNNY   81  56  42 NW13G18   29.57R
CONCORD NH     MOSUNNY   85  54  34 NW14      29.66R
MANCHESTER NH  PTSUNNY   85  54  34 NW8       29.64R
NASHUA NH      MOSUNNY   84  57  39 W9        29.67R
PORTSMOUTH NH  PTSUNNY   84  58  40 NW12      29.62R
JAFFREY NH     PTSUNNY   82  58  43 W13G18    29.72R
KEENE NH       MOSUNNY   81  60  48 W8        29.70R
BURLINGTON VT  PTSUNNY   79  55  43 W8        29.66R
MT. WASHINGTON PTSUNNY   48  46  93 W38G46      N/A
$$

NYZ052-076-242200-
EASTERN NEW YORK

CITY           SKY/WX    TMP DP  RH WIND       PRES   REMARKS
ALBANY         MOSUNNY   81  53  37 NW13G21   29.76R
NEW YORK CITY  PTSUNNY   85  53  33 NW21G26   29.77R
$$

ANZALL-242200-
MARINE OBSERVATIONS

STATION/POSITION TIME  TEMP    WIND        PRES    VSBY  WAVE
                       AIR SEA DIR/SP/G                  HT/PER
                 (UTC) (F)     (DEG/KT/KT) (MB)    (MI)  (FT/S)
BOSTON BUOY      2050   68 60  260/  8/ 10 1003.6R         1/ 8
BUZZARDS BAY     2000   68     240/ 16/ 16 1004.5R
NANTUCKET SOUND  2050      65              1004.2R         2/ 3
MASS BAY-STELLWA 2004   68 61  260/  4/  6 1001.9R         1/ 8
ISLE OF SHOALS   2000   80     320/ 16/ 17 1002.0R
S OF BLOCK IS    2055      64                N/A           8/ 8
$$

......................KEY.........................
  SKY/WX - SKY CONDITION/PRESENT WEATHER
  TMP    - TEMPERATURE IN FAHRENHEIT
  DWPT   - DEWPOINT IN FAHRENHEIT
  RH     - RELATIVE HUMIDITY IN PERCENT
  WIND   - DIRECTION AND SPEED IN MPH
  PRES   - MEAN SEA LEVEL PRESSURE IN INCHES OF HG
  WCI    - WIND CHILL INDEX
  VSB    - VISIBILITY IN MILES
  HX     - HEAT INDEX
  TC     - TEMPERATURE IN CELSIUS
  VRB    - VARIABLE WIND DIRECTION
  N/A    - NOT AVAILABLE




USA.gov is the U.S. government's official web portal to all federal, state and local government web resources and services.